CDT,Max TemperatureF,Mean TemperatureF,Min TemperatureF,Max Dew PointF,MeanDew PointF,Min DewpointF,Max Humidity, Mean Humidity, Min Humidity, Max Sea Level PressureIn, Mean Sea Level PressureIn, Min Sea Level PressureIn, Max VisibilityMiles, Mean VisibilityMiles, Min VisibilityMiles, Max Wind SpeedMPH, Mean Wind SpeedMPH, Max Gust SpeedMPH,PrecipitationIn, CloudCover, Events, WindDirDegrees
2013-10-1,75,63,51,52,42,34,76,47,22,29.98,29.90,29.62,10,10,5,20,11,30,0.00,0,,298
2013-10-2,78,63,48,66,52,36,88,66,54,29.98,29.88,29.77,10,10,9,16,7,22,0.00,2,Thunderstorm,127
2013-10-3,64,58,53,57,54,52,100,92,77,29.88,29.83,29.80,10,8,0,16,7,21,0.00,6,Thunderstorm,349
2013-10-4,68,56,42,64,54,36,94,88,71,29.85,29.75,29.55,10,9,3,26,14,33,0.00,7,Thunderstorm,78
2013-10-5,46,42,39,41,35,30,93,75,65,29.78,29.73,29.67,10,10,3,25,17,33,0.00,6,,223
2013-10-6,59,50,42,43,39,30,93,74,34,30.00,29.89,29.78,10,10,4,26,16,34,0.00,5,,306
2013-10-7,73,58,44,46,42,37,87,61,33,30.02,29.97,29.88,10,10,8,13,6,,0.00,0,,198
2013-10-8,77,65,53,45,42,39,67,43,29,29.88,29.81,29.74,10,10,10,24,13,33,0.00,0,,173
2013-10-9,78,64,50,52,48,45,82,57,34,29.95,29.90,29.85,10,10,5,20,12,24,0.00,0,,134
2013-10-10,78,66,55,57,53,50,88,64,44,29.91,29.82,29.69,10,10,10,22,12,29,0.00,0,,135
2013-10-11,75,63,51,55,49,39,82,62,33,29.84,29.63,29.47,10,10,10,31,18,44,0.00,2,,186
2013-10-12,62,50,37,39,32,27,70,48,26,30.27,30.07,29.85,10,10,10,26,16,32,0.00,0,,273
2013-10-13,66,49,32,37,33,28,93,58,28,30.40,30.31,30.24,10,10,10,17,5,25,0.00,1,,114
2013-10-14,55,50,44,52,45,36,100,90,47,30.27,29.96,29.65,10,8,2,25,13,32,0.00,8,Thunderstorm,115
2013-10-15,51,46,41,52,40,37,100,86,81,30.06,29.87,29.66,10,8,2,28,19,36,0.00,8,,280
2013-10-16,55,45,35,37,35,32,93,70,41,30.07,30.00,29.91,10,10,10,16,10,20,0.00,2,,284
2013-10-17,48,40,32,41,35,30,100,80,66,30.05,29.93,29.84,10,10,6,24,8,33,0.00,4,,292
2013-10-18,53,42,32,37,31,27,87,69,35,30.10,30.03,29.94,10,10,7,16,9,28,0.00,3,,274
2013-10-19,57,48,39,37,34,30,76,64,38,29.93,29.82,29.77,10,10,8,20,10,26,0.00,4,,265
2013-10-20,57,47,37,39,36,30,93,68,48,30.03,29.80,29.66,10,10,10,28,11,36,0.00,5,,299
2013-10-21,50,41,32,39,32,25,93,73,43,30.05,30.00,29.91,10,10,10,14,7,18,0.00,4,,260
2013-10-22,44,38,32,43,35,30,100,88,75,30.11,30.02,29.88,10,9,2,13,5,18,0.00,7,,345
2013-10-23,42,35,28,37,32,25,100,87,75,30.23,30.11,30.04,10,9,3,16,3,18,0.00,6,,330
2013-10-24,46,37,28,30,27,25,93,70,43,30.38,30.32,30.24,10,10,10,13,8,18,0.00,1,,284
2013-10-25,62,44,26,39,33,23,93,66,39,30.34,30.13,29.95,10,10,10,25,8,30,0.00,1,,206
2013-10-26,51,40,30,39,29,23,86,63,40,30.26,30.15,29.99,10,10,10,18,11,25,0.00,0,,298
2013-10-27,66,48,30,39,32,25,87,62,35,30.07,29.91,29.80,10,10,10,15,6,21,0.00,0,,20
2013-10-28,44,38,33,32,29,27,81,70,57,30.31,30.22,30.05,10,10,10,22,13,28,0.03,2,,49
2013-10-29,41,38,35,39,36,32,100,91,81,30.23,30.09,30.00,10,6,2,13,9,17,0.06,8,,37
2013-10-30,41,37,33,39,36,30,100,93,81,30.02,29.88,29.74,10,6,0,14,8,,0.01,7,,296
2013-10-31,51,40,28,39,34,27,100,82,54,29.74,29.59,29.49,10,6,0,21,6,29,0.01,4,,275